| time (UTC) | temp F | wind direction | speed MPH | gust MPH | rain 1hr in | rain 24hr in | rain mn in | humidity % | barometer mb |
| 20260507185511 | 56 | 275 | 4.0 | 12.0 | 0.00 | 0.00 | 0.00 | 47 | 1013.6 |
| 20260507185009 | 56 | 282 | 5.0 | 12.0 | 0.00 | 0.00 | 0.00 | 48 | 1013.6 |
| 20260507184523 | 56 | 257 | 5.0 | 9.0 | 0.00 | 0.00 | 0.00 | 45 | 1013.6 |
| 20260507184003 | 56 | 290 | 3.0 | 9.0 | 0.00 | 0.00 | 0.00 | 45 | 1013.6 |
| 20260507183504 | 56 | 236 | 3.0 | 9.0 | 0.00 | 0.00 | 0.00 | 56 | 1013.6 |
| 20260507183008 | 55 | 236 | 3.0 | 11.0 | 0.00 | 0.00 | 0.00 | 47 | 1013.6 |
| 20260507182505 | 55 | 255 | 7.0 | 11.0 | 0.00 | 0.00 | 0.00 | 49 | 1013.7 |
| 20260507182005 | 56 | 300 | 4.0 | 10.0 | 0.00 | 0.00 | 0.00 | 49 | 1013.7 |
| 20260507181512 | 55 | 295 | 4.0 | 12.0 | 0.00 | 0.00 | 0.00 | 49 | 1013.7 |
| 20260507181004 | 55 | 269 | 5.0 | 12.0 | 0.00 | 0.00 | 0.00 | 51 | 1013.8 |
| 20260507180511 | 55 | 232 | 5.0 | 12.0 | 0.00 | 0.00 | 0.00 | 49 | 1013.7 |
| 20260507180016 | 55 | 297 | 5.0 | 12.0 | 0.00 | 0.00 | 0.00 | 48 | 1013.8 |
| 20260507175508 | 55 | 282 | 5.0 | 11.0 | 0.00 | 0.00 | 0.00 | 47 | 1013.9 |
| 20260507175011 | 56 | 286 | 5.0 | 11.0 | 0.00 | 0.00 | 0.00 | 50 | 1013.7 |
| 20260507174532 | 55 | 277 | 4.0 | 12.0 | 0.00 | 0.00 | 0.00 | 46 | 1013.9 |
| 20260507174008 | 55 | 226 | 5.0 | 12.0 | 0.00 | 0.00 | 0.00 | 49 | 1014.0 |
| 20260507173512 | 55 | 248 | 2.0 | 11.0 | 0.00 | 0.00 | 0.00 | 54 | 1014.0 |
| 20260507173005 | 55 | 273 | 5.0 | 11.0 | 0.00 | 0.00 | 0.00 | 52 | 1014.0 |
| 20260507172506 | 54 | 225 | 3.0 | 11.0 | 0.00 | 0.00 | 0.00 | 52 | 1014.0 |
| 20260507172005 | 54 | 270 | 5.0 | 12.0 | 0.00 | 0.00 | 0.00 | 53 | 1014.1 |
| 20260507171515 | 54 | 288 | 6.0 | 12.0 | 0.00 | 0.00 | 0.00 | 52 | 1014.1 |
| 20260507171005 | 54 | 284 | 5.0 | 11.0 | 0.00 | 0.00 | 0.00 | 54 | 1014.1 |
| 20260507170507 | 54 | 240 | 4.0 | 11.0 | 0.00 | 0.00 | 0.00 | 53 | 1014.2 |
| 20260507170023 | 54 | 284 | 4.0 | 14.0 | 0.00 | 0.00 | 0.00 | 55 | 1014.2 |
| 20260507165506 | 53 | 302 | 4.0 | 14.0 | 0.00 | 0.00 | 0.00 | 58 | 1014.3 |
| 20260507165004 | 53 | 240 | 5.0 | 12.0 | 0.00 | 0.00 | 0.00 | 52 | 1014.3 |
| 20260507164520 | 53 | 290 | 4.0 | 12.0 | 0.00 | 0.00 | 0.00 | 53 | 1014.4 |
| 20260507164010 | 53 | 254 | 5.0 | 10.0 | 0.00 | 0.00 | 0.00 | 54 | 1014.4 |
| 20260507163509 | 53 | 308 | 3.0 | 16.0 | 0.00 | 0.00 | 0.00 | 55 | 1014.5 |
| 20260507163023 | 53 | 272 | 7.0 | 16.0 | 0.00 | 0.00 | 0.00 | 53 | 1014.5 |
| 20260507162509 | 53 | 265 | 3.0 | 10.0 | 0.00 | 0.00 | 0.00 | 59 | 1014.4 |
| 20260507162012 | 53 | 252 | 6.0 | 9.0 | 0.00 | 0.00 | 0.00 | 52 | 1014.5 |
| 20260507161526 | 53 | 281 | 5.0 | 10.0 | 0.00 | 0.00 | 0.00 | 54 | 1014.4 |
| 20260507160509 | 53 | 279 | 4.0 | 11.0 | 0.00 | 0.00 | 0.00 | 55 | 1014.3 |
| 20260507160032 | 52 | 288 | 6.0 | 11.0 | 0.00 | 0.00 | 0.00 | 51 | 1014.3 |
| 20260507155006 | 52 | 295 | 5.0 | 10.0 | 0.00 | 0.00 | 0.00 | 51 | 1014.3 |
| 20260507154518 | 52 | 207 | 5.0 | 11.0 | 0.00 | 0.00 | 0.00 | 52 | 1014.2 |
| 20260507154010 | 52 | 294 | 5.0 | 11.0 | 0.00 | 0.00 | 0.00 | 54 | 1014.2 |
| 20260507153507 | 52 | 286 | 4.0 | 10.0 | 0.00 | 0.00 | 0.00 | 54 | 1014.2 |
| 20260507153022 | 52 | 279 | 3.0 | 13.0 | 0.00 | 0.00 | 0.00 | 53 | 1014.2 |
| 20260507152511 | 52 | 252 | 5.0 | 12.0 | 0.00 | 0.00 | 0.00 | 57 | 1014.1 |
| 20260507152015 | 52 | 281 | 4.0 | 10.0 | 0.00 | 0.00 | 0.00 | 55 | 1014.1 |
| 20260507151524 | 52 | 198 | 3.0 | 11.0 | 0.00 | 0.00 | 0.00 | 55 | 1014.1 |
| 20260507151012 | 52 | 254 | 5.0 | 11.0 | 0.00 | 0.00 | 0.00 | 56 | 1014.1 |
| 20260507150032 | 51 | 275 | 4.0 | 10.0 | 0.00 | 0.00 | 0.00 | 54 | 1014.0 |
| 20260507145509 | 51 | 282 | 3.0 | 10.0 | 0.00 | 0.00 | 0.00 | 54 | 1014.2 |
| 20260507145008 | 51 | 227 | 5.0 | 9.0 | 0.00 | 0.00 | 0.00 | 54 | 1014.2 |
| 20260507144528 | 51 | 297 | 4.0 | 11.0 | 0.00 | 0.00 | 0.00 | 57 | 1014.2 |
| 20260507144009 | 50 | 263 | 5.0 | 11.0 | 0.00 | 0.00 | 0.00 | 54 | 1014.1 |
| 20260507143508 | 50 | 238 | 5.0 | 10.0 | 0.00 | 0.00 | 0.00 | 55 | 1014.3 |
| 20260507143026 | 50 | 268 | 4.0 | 10.0 | 0.00 | 0.00 | 0.00 | 54 | 1014.2 |
| 20260507142509 | 50 | 298 | 3.0 | 10.0 | 0.00 | 0.00 | 0.00 | 53 | 1014.2 |
| 20260507142009 | 50 | 281 | 5.0 | 9.0 | 0.00 | 0.00 | 0.00 | 54 | 1014.2 |
| 20260507141526 | 50 | 269 | 4.0 | 10.0 | 0.00 | 0.00 | 0.00 | 53 | 1014.3 |
| 20260507141010 | 50 | 272 | 3.0 | 10.0 | 0.00 | 0.00 | 0.00 | 55 | 1014.3 |
| 20260507140513 | 50 | 253 | 4.0 | 10.0 | 0.00 | 0.00 | 0.00 | 56 | 1014.3 |
| 20260507140027 | 49 | 281 | 4.0 | 12.0 | 0.00 | 0.00 | 0.00 | 56 | 1014.4 |
| 20260507135514 | 49 | 290 | 5.0 | 12.0 | 0.00 | 0.00 | 0.00 | 55 | 1014.5 |
| 20260507135012 | 48 | 287 | 2.0 | 8.0 | 0.00 | 0.00 | 0.00 | 60 | 1014.4 |
| 20260507134513 | 48 | 280 | 3.0 | 7.0 | 0.00 | 0.00 | 0.00 | 60 | 1014.5 |
| 20260507134010 | 48 | 290 | 2.0 | 7.0 | 0.00 | 0.00 | 0.00 | 60 | 1014.5 |
| 20260507133503 | 48 | 286 | 4.0 | 10.0 | 0.00 | 0.00 | 0.00 | 59 | 1014.4 |
| 20260507133003 | 48 | 350 | 3.0 | 10.0 | 0.00 | 0.00 | 0.00 | 61 | 1014.4 |
| 20260507132502 | 48 | 270 | 3.0 | 9.0 | 0.00 | 0.00 | 0.00 | 62 | 1014.4 |
| 20260507132004 | 48 | 243 | 3.0 | 9.0 | 0.00 | 0.00 | 0.00 | 62 | 1014.5 |
| 20260507131510 | 47 | 287 | 3.0 | 6.0 | 0.00 | 0.00 | 0.00 | 64 | 1014.5 |
| 20260507131004 | 47 | 267 | 2.0 | 7.0 | 0.00 | 0.00 | 0.00 | 64 | 1014.6 |
| 20260507130010 | 46 | 257 | 1.0 | 9.0 | 0.00 | 0.00 | 0.00 | 66 | 1014.5 |
| 20260507125505 | 46 | 210 | 5.0 | 9.0 | 0.00 | 0.00 | 0.00 | 64 | 1014.6 |
| 20260507125007 | 47 | 274 | 4.0 | 9.0 | 0.00 | 0.00 | 0.00 | 67 | 1014.4 |
| 20260507124512 | 46 | 286 | 4.0 | 9.0 | 0.00 | 0.00 | 0.00 | 68 | 1014.4 |
| 20260507124007 | 46 | 290 | 3.0 | 8.0 | 0.00 | 0.00 | 0.00 | 71 | 1014.4 |
| 20260507123508 | 45 | 290 | 2.0 | 7.0 | 0.00 | 0.00 | 0.00 | 72 | 1014.5 |
| 20260507123016 | 45 | 264 | 3.0 | 7.0 | 0.00 | 0.00 | 0.00 | 73 | 1014.4 |
| 20260507122504 | 44 | 264 | 2.0 | 8.0 | 0.00 | 0.00 | 0.00 | 74 | 1014.4 |
| 20260507122004 | 44 | 281 | 2.0 | 8.0 | 0.00 | 0.00 | 0.00 | 75 | 1014.5 |
| 20260507121503 | 43 | 274 | 2.0 | 6.0 | 0.00 | 0.00 | 0.00 | 77 | 1014.5 |
| 20260507121005 | 43 | 294 | 2.0 | 6.0 | 0.00 | 0.00 | 0.00 | 77 | 1014.4 |
| 20260507120503 | 42 | 269 | 2.0 | 5.0 | 0.00 | 0.00 | 0.00 | 80 | 1014.4 |
| 20260507120022 | 42 | 275 | 2.0 | 4.0 | 0.00 | 0.00 | 0.00 | 82 | 1014.4 |
| 20260507115505 | 41 | 277 | 2.0 | 4.0 | 0.00 | 0.00 | 0.00 | 84 | 1014.3 |
| 20260507115004 | 40 | 261 | 2.0 | 4.0 | 0.00 | 0.00 | 0.00 | 88 | 1014.3 |
| 20260507114511 | 39 | 232 | 1.0 | 3.0 | 0.00 | 0.00 | 0.00 | 91 | 1014.3 |
| 20260507114007 | 38 | 272 | 1.0 | 2.0 | 0.00 | 0.00 | 0.00 | 94 | 1014.3 |
| 20260507113507 | 37 | 239 | 1.0 | 2.0 | 0.00 | 0.00 | 0.00 | 96 | 1014.3 |
| 20260507113024 | 37 | 259 | 0.0 | 2.0 | 0.00 | 0.00 | 0.00 | 97 | 1014.3 |
| 20260507112510 | 37 | 262 | 1.0 | 2.0 | 0.00 | 0.00 | 0.00 | 97 | 1014.3 |
| 20260507112008 | 36 | 253 | 0.0 | 2.0 | 0.00 | 0.00 | 0.00 | 97 | 1014.3 |
| 20260507111521 | 35 | 248 | 0.0 | 2.0 | 0.00 | 0.00 | 0.00 | 97 | 1014.3 |
| 20260507111002 | 35 | 248 | 0.0 | 2.0 | 0.00 | 0.00 | 0.00 | 97 | 1014.3 |
| 20260507110504 | 35 | 248 | 0.0 | 2.0 | 0.00 | 0.00 | 0.00 | 96 | 1014.3 |
| 20260507110007 | 34 | 248 | 0.0 | 0.0 | 0.00 | 0.00 | 0.00 | 96 | 1014.1 |
| 20260507105503 | 34 | 248 | 0.0 | 0.0 | 0.00 | 0.00 | 0.00 | 96 | 1014.0 |
| 20260507105004 | 34 | 248 | 0.0 | 0.0 | 0.00 | 0.00 | 0.00 | 96 | 1014.0 |
| 20260507104513 | 34 | 248 | 0.0 | 0.0 | 0.00 | 0.00 | 0.00 | 96 | 1014.0 |
| 20260507104007 | 34 | 248 | 0.0 | 2.0 | 0.00 | 0.00 | 0.00 | 96 | 1014.0 |
| 20260507103505 | 34 | 248 | 0.0 | 2.0 | 0.00 | 0.00 | 0.00 | 96 | 1014.0 |
| 20260507103015 | 34 | 248 | 0.0 | 2.0 | 0.00 | 0.00 | 0.00 | 96 | 1014.0 |
| 20260507102510 | 34 | 248 | 0.0 | 2.0 | 0.00 | 0.00 | 0.00 | 96 | 1014.0 |
| 20260507102007 | 34 | 248 | 0.0 | 0.0 | 0.00 | 0.00 | 0.00 | 96 | 1013.9 |
| 20260507101521 | 34 | 248 | 0.0 | 0.0 | 0.00 | 0.00 | 0.00 | 96 | 1013.9 |
| 20260507101007 | 34 | 248 | 0.0 | 0.0 | 0.00 | 0.00 | 0.00 | 96 | 1013.8 |
| 20260507100507 | 34 | 248 | 0.0 | 0.0 | 0.00 | 0.00 | 0.00 | 95 | 1013.8 |
| 20260507100034 | 34 | 248 | 0.0 | 0.0 | 0.00 | 0.00 | 0.00 | 95 | 1013.8 |
| 20260507095506 | 34 | 248 | 0.0 | 0.0 | 0.00 | 0.00 | 0.00 | 96 | 1013.8 |
| 20260507095004 | 34 | 248 | 0.0 | 0.0 | 0.00 | 0.00 | 0.00 | 96 | 1013.7 |
| 20260507094505 | 34 | 248 | 0.0 | 0.0 | 0.00 | 0.00 | 0.00 | 95 | 1013.7 |
| 20260507094005 | 34 | 248 | 0.0 | 0.0 | 0.00 | 0.00 | 0.00 | 95 | 1013.7 |
| 20260507093505 | 34 | 248 | 0.0 | 0.0 | 0.00 | 0.00 | 0.00 | 96 | 1013.7 |
| 20260507093016 | 34 | 248 | 0.0 | 0.0 | 0.00 | 0.00 | 0.00 | 95 | 1013.6 |
| 20260507092503 | 34 | 248 | 0.0 | 0.0 | 0.00 | 0.00 | 0.00 | 95 | 1013.6 |
| 20260507092005 | 34 | 248 | 0.0 | 0.0 | 0.00 | 0.00 | 0.00 | 96 | 1013.7 |
| 20260507091518 | 34 | 248 | 0.0 | 0.0 | 0.00 | 0.00 | 0.00 | 96 | 1013.7 |
| 20260507091007 | 34 | 248 | 0.0 | 0.0 | 0.00 | 0.00 | 0.00 | 95 | 1013.6 |
| 20260507090508 | 34 | 248 | 0.0 | 0.0 | 0.00 | 0.00 | 0.00 | 95 | 1013.4 |
| 20260507090023 | 34 | 248 | 0.0 | 0.0 | 0.00 | 0.00 | 0.00 | 95 | 1013.6 |
| 20260507085508 | 34 | 248 | 0.0 | 0.0 | 0.00 | 0.00 | 0.00 | 95 | 1013.7 |
| 20260507085008 | 34 | 248 | 0.0 | 0.0 | 0.00 | 0.00 | 0.00 | 95 | 1013.8 |
| 20260507084526 | 34 | 248 | 0.0 | 0.0 | 0.00 | 0.00 | 0.00 | 95 | 1013.7 |
| 20260507084004 | 35 | 248 | 0.0 | 0.0 | 0.00 | 0.01 | 0.00 | 95 | 1013.8 |
| 20260507083504 | 35 | 248 | 0.0 | 0.0 | 0.00 | 0.01 | 0.00 | 95 | 1013.7 |
| 20260507083012 | 35 | 248 | 0.0 | 0.0 | 0.00 | 0.01 | 0.00 | 95 | 1013.7 |
| 20260507082504 | 35 | 248 | 0.0 | 0.0 | 0.00 | 0.02 | 0.00 | 95 | 1013.8 |
| 20260507082003 | 35 | 248 | 0.0 | 0.0 | 0.00 | 0.03 | 0.00 | 95 | 1013.9 |
| 20260507081527 | 35 | 248 | 0.0 | 0.0 | 0.00 | 0.04 | 0.00 | 95 | 1013.9 |
| 20260507081003 | 35 | 248 | 0.0 | 0.0 | 0.00 | 0.05 | 0.00 | 95 | 1013.9 |
| 20260507080507 | 35 | 248 | 0.0 | 0.0 | 0.00 | 0.06 | 0.00 | 95 | 1013.9 |
| 20260507080019 | 35 | 248 | 0.0 | 0.0 | 0.00 | 0.07 | 0.00 | 95 | 1013.9 |
| 20260507075509 | 35 | 248 | 0.0 | 0.0 | 0.00 | 0.09 | 0.00 | 95 | 1013.8 |
| 20260507075008 | 35 | 248 | 0.0 | 0.0 | 0.00 | 0.10 | 0.00 | 95 | 1013.8 |
| 20260507074544 | 35 | 248 | 0.0 | 0.0 | 0.00 | 0.10 | 0.00 | 95 | 1013.7 |
| 20260507074008 | 36 | 248 | 0.0 | 0.0 | 0.00 | 0.10 | 0.00 | 95 | 1013.7 |
| 20260507073510 | 36 | 248 | 0.0 | 0.0 | 0.00 | 0.10 | 0.00 | 95 | 1013.7 |
| 20260507073028 | 36 | 248 | 0.0 | 0.0 | 0.00 | 0.10 | 0.00 | 95 | 1013.8 |
| 20260507072004 | 36 | 248 | 0.0 | 0.0 | 0.00 | 0.10 | 0.00 | 95 | 1013.7 |
| 20260507071510 | 36 | 248 | 0.0 | 0.0 | 0.00 | 0.10 | 0.00 | 95 | 1013.7 |
| 20260507071006 | 36 | 248 | 0.0 | 0.0 | 0.00 | 0.10 | 0.00 | 95 | 1013.7 |
| 20260507070504 | 36 | 248 | 0.0 | 0.0 | 0.00 | 0.10 | 0.00 | 95 | 1013.7 |
| 20260507070020 | 36 | 248 | 0.0 | 0.0 | 0.00 | 0.11 | 0.00 | 95 | 1013.8 |
| 20260507065508 | 36 | 248 | 0.0 | 1.0 | 0.00 | 0.11 | 0.00 | 95 | 1013.8 |
| 20260507065008 | 36 | 248 | 0.0 | 1.0 | 0.00 | 0.11 | 0.00 | 95 | 1013.9 |
| 20260507064519 | 36 | 248 | 0.0 | 0.0 | 0.00 | 0.12 | 0.00 | 95 | 1013.9 |
| 20260507064010 | 36 | 248 | 0.0 | 0.0 | 0.00 | 0.12 | 0.00 | 94 | 1013.8 |
| 20260507063509 | 36 | 248 | 0.0 | 0.0 | 0.00 | 0.13 | 0.00 | 94 | 1013.9 |
| 20260507063026 | 36 | 248 | 0.0 | 0.0 | 0.00 | 0.14 | 0.00 | 94 | 1013.8 |
| 20260507062510 | 36 | 248 | 0.0 | 0.0 | 0.00 | 0.14 | 0.00 | 94 | 1013.9 |
| 20260507061528 | 37 | 248 | 0.0 | 0.0 | 0.00 | 0.15 | 0.00 | 94 | 1014.0 |
| 20260507061004 | 37 | 248 | 0.0 | 0.0 | 0.00 | 0.16 | 0.00 | 95 | 1014.0 |
| 20260507060507 | 37 | 248 | 0.0 | 0.0 | 0.00 | 0.17 | 0.00 | 95 | 1014.0 |
| 20260507060011 | 37 | 248 | 0.0 | 0.0 | 0.00 | 0.17 | 0.00 | 94 | 1014.0 |
| 20260507055506 | 37 | 248 | 0.0 | 0.0 | 0.00 | 0.18 | 0.00 | 94 | 1014.0 |
| 20260507055007 | 37 | 248 | 0.0 | 0.0 | 0.00 | 0.20 | 0.00 | 94 | 1014.0 |
| 20260507054521 | 37 | 248 | 0.0 | 0.0 | 0.00 | 0.21 | 0.00 | 94 | 1014.1 |
| 20260507054008 | 37 | 248 | 0.0 | 0.0 | 0.00 | 0.22 | 0.00 | 94 | 1014.1 |
| 20260507053508 | 37 | 248 | 0.0 | 0.0 | 0.00 | 0.22 | 0.00 | 94 | 1014.2 |
| 20260507053024 | 37 | 248 | 0.0 | 0.0 | 0.00 | 0.23 | 0.00 | 94 | 1014.3 |
| 20260507052507 | 37 | 248 | 0.0 | 0.0 | 0.00 | 0.24 | 0.00 | 94 | 1014.3 |
| 20260507052011 | 37 | 248 | 0.0 | 0.0 | 0.00 | 0.24 | 0.00 | 94 | 1014.2 |
| 20260507051525 | 37 | 248 | 0.0 | 0.0 | 0.00 | 0.24 | 0.00 | 94 | 1014.3 |
| 20260507050510 | 37 | 248 | 0.0 | 0.0 | 0.00 | 0.24 | 0.00 | 94 | 1014.2 |
| 20260507050028 | 37 | 248 | 0.0 | 0.0 | 0.00 | 0.24 | 0.00 | 93 | 1014.2 |
| 20260507045505 | 37 | 248 | 0.0 | 0.0 | 0.00 | 0.25 | 0.00 | 93 | 1014.1 |
| 20260507045005 | 37 | 248 | 0.0 | 0.0 | 0.00 | 0.25 | 0.00 | 93 | 1014.2 |
| 20260507044516 | 38 | 248 | 0.0 | 0.0 | 0.00 | 0.26 | 0.00 | 93 | 1014.2 |
| 20260507044007 | 38 | 248 | 0.0 | 0.0 | 0.00 | 0.27 | 0.00 | 93 | 1014.2 |
| 20260507043504 | 38 | 248 | 0.0 | 0.0 | 0.00 | 0.29 | 0.00 | 93 | 1014.1 |
| 20260507043020 | 38 | 248 | 0.0 | 0.0 | 0.00 | 0.30 | 0.00 | 93 | 1014.1 |
| 20260507042508 | 38 | 248 | 0.0 | 0.0 | 0.00 | 0.31 | 0.00 | 93 | 1014.0 |
| 20260507042008 | 38 | 248 | 0.0 | 0.0 | 0.00 | 0.31 | 0.00 | 93 | 1014.1 |
| 20260507041527 | 38 | 248 | 0.0 | 0.0 | 0.00 | 0.31 | 0.00 | 93 | 1014.1 |
| 20260507041009 | 38 | 248 | 0.0 | 0.0 | 0.00 | 0.31 | 0.00 | 93 | 1014.0 |
| 20260507040510 | 38 | 248 | 0.0 | 0.0 | 0.00 | 0.31 | 0.00 | 92 | 1014.1 |
| 20260507040027 | 38 | 248 | 0.0 | 0.0 | 0.00 | 0.31 | 0.00 | 92 | 1014.0 |
| 20260507035014 | 39 | 248 | 0.0 | 0.0 | 0.00 | 0.31 | 0.31 | 92 | 1014.1 |
| 20260507034527 | 39 | 248 | 0.0 | 0.0 | 0.00 | 0.31 | 0.31 | 92 | 1014.1 |
| 20260507034006 | 39 | 248 | 0.0 | 0.0 | 0.00 | 0.32 | 0.31 | 92 | 1014.1 |
| 20260507033506 | 39 | 248 | 0.0 | 0.0 | 0.00 | 0.32 | 0.31 | 91 | 1014.1 |
| 20260507033021 | 39 | 248 | 0.0 | 0.0 | 0.00 | 0.32 | 0.31 | 91 | 1014.2 |
| 20260507032509 | 39 | 248 | 0.0 | 0.0 | 0.00 | 0.33 | 0.31 | 91 | 1014.2 |
| 20260507032016 | 39 | 248 | 0.0 | 0.0 | 0.00 | 0.33 | 0.31 | 90 | 1014.3 |
| 20260507031523 | 39 | 248 | 0.0 | 0.0 | 0.00 | 0.33 | 0.31 | 90 | 1014.3 |
| 20260507031009 | 40 | 248 | 0.0 | 0.0 | 0.00 | 0.34 | 0.31 | 90 | 1014.4 |
| 20260507030024 | 40 | 248 | 0.0 | 0.0 | 0.00 | 0.36 | 0.31 | 89 | 1014.4 |
| 20260507025509 | 40 | 248 | 0.0 | 0.0 | 0.00 | 0.37 | 0.31 | 88 | 1014.5 |
| 20260507024527 | 40 | 248 | 0.0 | 0.0 | 0.00 | 0.40 | 0.31 | 87 | 1014.5 |
| 20260507023511 | 41 | 248 | 0.0 | 0.0 | 0.00 | 0.43 | 0.31 | 86 | 1014.5 |
| 20260507023028 | 41 | 248 | 0.0 | 0.0 | 0.00 | 0.44 | 0.31 | 85 | 1014.5 |
| 20260507022506 | 42 | 248 | 0.0 | 0.0 | 0.00 | 0.45 | 0.31 | 84 | 1014.4 |
| 20260507021521 | 42 | 248 | 0.0 | 0.0 | 0.00 | 0.46 | 0.31 | 82 | 1014.3 |
| 20260507021005 | 43 | 248 | 0.0 | 0.0 | 0.00 | 0.46 | 0.31 | 83 | 1014.3 |
| 20260507020506 | 43 | 248 | 0.0 | 0.0 | 0.00 | 0.47 | 0.31 | 82 | 1014.3 |
| 20260507015504 | 44 | 248 | 0.0 | 0.0 | 0.00 | 0.49 | 0.31 | 78 | 1014.2 |
| 20260507015006 | 44 | 248 | 0.0 | 0.0 | 0.00 | 0.50 | 0.31 | 77 | 1014.2 |
| 20260507014526 | 45 | 248 | 0.0 | 0.0 | 0.00 | 0.51 | 0.31 | 76 | 1014.1 |
| 20260507014005 | 45 | 248 | 0.0 | 0.0 | 0.00 | 0.52 | 0.31 | 75 | 1014.2 |
| 20260507013506 | 46 | 248 | 0.0 | 0.0 | 0.00 | 0.52 | 0.31 | 73 | 1014.2 |
| 20260507013015 | 47 | 248 | 0.0 | 0.0 | 0.00 | 0.54 | 0.31 | 71 | 1014.1 |
| 20260507012506 | 47 | 248 | 0.0 | 0.0 | 0.00 | 0.55 | 0.31 | 70 | 1014.1 |
| 20260507012008 | 48 | 248 | 0.0 | 0.0 | 0.00 | 0.56 | 0.31 | 70 | 1014.1 |
| 20260507011516 | 49 | 248 | 0.0 | 0.0 | 0.00 | 0.58 | 0.31 | 68 | 1014.0 |
| 20260507011010 | 49 | 248 | 0.0 | 0.0 | 0.00 | 0.60 | 0.31 | 66 | 1014.0 |
| 20260507010020 | 50 | 248 | 0.0 | 2.0 | 0.00 | 0.63 | 0.31 | 60 | 1013.9 |
| 20260507005505 | 51 | 248 | 0.0 | 2.0 | 0.00 | 0.64 | 0.31 | 60 | 1013.8 |
| 20260507005008 | 51 | 248 | 0.0 | 2.0 | 0.00 | 0.65 | 0.31 | 59 | 1013.6 |
| 20260507004520 | 51 | 248 | 0.0 | 2.0 | 0.00 | 0.66 | 0.31 | 58 | 1013.6 |
| 20260507004010 | 51 | 261 | 1.0 | 2.0 | 0.00 | 0.67 | 0.31 | 57 | 1013.5 |
| 20260507003507 | 51 | 250 | 0.0 | 3.0 | 0.00 | 0.68 | 0.31 | 57 | 1013.4 |
| 20260507003021 | 51 | 252 | 0.0 | 3.0 | 0.00 | 0.69 | 0.31 | 57 | 1013.4 |
| 20260507002503 | 52 | 259 | 1.0 | 3.0 | 0.00 | 0.70 | 0.31 | 56 | 1013.3 |
| 20260507002007 | 52 | 263 | 0.0 | 7.0 | 0.00 | 0.71 | 0.31 | 56 | 1013.3 |
| 20260507001521 | 52 | 240 | 0.0 | 7.0 | 0.00 | 0.72 | 0.31 | 56 | 1013.3 |
| 20260507001012 | 52 | 269 | 1.0 | 7.0 | 0.00 | 0.73 | 0.31 | 55 | 1013.2 |
| 20260507000026 | 52 | 298 | 3.0 | 4.0 | 0.00 | 0.76 | 0.31 | 55 | 1013.2 |
| 20260506235505 | 52 | 234 | 0.0 | 2.0 | 0.00 | 0.77 | 0.31 | 58 | 1013.3 |
| 20260506234521 | 52 | 261 | 1.0 | 3.0 | 0.00 | 0.78 | 0.31 | 55 | 1013.2 |
| 20260506234006 | 52 | 276 | 0.0 | 2.0 | 0.00 | 0.78 | 0.31 | 57 | 1013.1 |
| 20260506233505 | 52 | 298 | 1.0 | 3.0 | 0.00 | 0.79 | 0.31 | 56 | 1013.1 |
| 20260506233021 | 53 | 264 | 0.0 | 3.0 | 0.00 | 0.80 | 0.31 | 55 | 1013.1 |
| 20260506232505 | 53 | 271 | 1.0 | 5.0 | 0.00 | 0.80 | 0.31 | 55 | 1013.1 |
| 20260506232006 | 53 | 255 | 2.0 | 6.0 | 0.00 | 0.81 | 0.31 | 53 | 1013.3 |
| 20260506231514 | 53 | 284 | 3.0 | 8.0 | 0.00 | 0.83 | 0.31 | 52 | 1013.3 |
| 20260506231008 | 53 | 244 | 2.0 | 9.0 | 0.00 | 0.83 | 0.31 | 51 | 1013.4 |
| 20260506230507 | 53 | 294 | 3.0 | 9.0 | 0.00 | 0.84 | 0.31 | 52 | 1013.5 |
| 20260506230022 | 53 | 267 | 2.0 | 8.0 | 0.00 | 0.85 | 0.31 | 54 | 1013.6 |
| 20260506225510 | 53 | 288 | 3.0 | 8.0 | 0.00 | 0.85 | 0.31 | 52 | 1013.6 |
| 20260506225008 | 53 | 296 | 2.0 | 7.0 | 0.00 | 0.86 | 0.31 | 54 | 1013.6 |
| 20260506224521 | 53 | 281 | 3.0 | 9.0 | 0.00 | 0.86 | 0.31 | 55 | 1013.7 |
| 20260506224008 | 53 | 253 | 3.0 | 9.0 | 0.00 | 0.87 | 0.31 | 53 | 1013.6 |
| 20260506223508 | 54 | 258 | 2.0 | 5.0 | 0.00 | 0.87 | 0.31 | 53 | 1013.6 |
| 20260506223021 | 54 | 209 | 2.0 | 5.0 | 0.00 | 0.87 | 0.31 | 52 | 1013.5 |
| 20260506222505 | 54 | 131 | 1.0 | 7.0 | 0.00 | 0.87 | 0.31 | 54 | 1013.6 |
| 20260506222006 | 53 | 260 | 3.0 | 7.0 | 0.00 | 0.88 | 0.31 | 51 | 1013.6 |
| 20260506221522 | 54 | 259 | 2.0 | 6.0 | 0.00 | 0.88 | 0.31 | 53 | 1013.6 |
| 20260506221014 | 54 | 259 | 3.0 | 6.0 | 0.00 | 0.89 | 0.31 | 53 | 1013.4 |
| 20260506220508 | 54 | 244 | 1.0 | 6.0 | 0.00 | 0.90 | 0.31 | 53 | 1013.3 |
| 20260506220021 | 54 | 263 | 1.0 | 6.0 | 0.00 | 0.90 | 0.31 | 50 | 1013.4 |
| 20260506215511 | 54 | 261 | 2.0 | 6.0 | 0.00 | 0.90 | 0.31 | 51 | 1013.3 |
| 20260506215008 | 54 | 277 | 1.0 | 6.0 | 0.00 | 0.90 | 0.31 | 51 | 1013.2 |
| 20260506214520 | 54 | 238 | 3.0 | 9.0 | 0.00 | 0.91 | 0.31 | 49 | 1013.2 |
| 20260506213511 | 54 | 309 | 3.0 | 7.0 | 0.00 | 0.91 | 0.31 | 49 | 1013.1 |
| 20260506212507 | 54 | 265 | 4.0 | 7.0 | 0.00 | 0.92 | 0.31 | 53 | 1012.9 |
| 20260506212009 | 54 | 238 | 2.0 | 7.0 | 0.00 | 0.92 | 0.31 | 55 | 1012.9 |
| 20260506211523 | 54 | 271 | 1.0 | 7.0 | 0.00 | 0.92 | 0.31 | 56 | 1012.8 |
| 20260506211006 | 54 | 321 | 2.0 | 7.0 | 0.00 | 0.93 | 0.31 | 55 | 1012.9 |
| 20260506210508 | 54 | 290 | 3.0 | 7.0 | 0.00 | 0.94 | 0.31 | 55 | 1012.9 |
| 20260506210025 | 54 | 276 | 2.0 | 8.0 | 0.00 | 0.96 | 0.31 | 54 | 1013.0 |
| 20260506205511 | 54 | 294 | 1.0 | 12.0 | 0.00 | 0.98 | 0.31 | 55 | 1013.0 |
| 20260506205008 | 54 | 284 | 3.0 | 12.0 | 0.00 | 1.01 | 0.31 | 53 | 1013.0 |
| 20260506204524 | 54 | 245 | 3.0 | 9.0 | 0.00 | 1.04 | 0.31 | 55 | 1013.0 |
| 20260506204006 | 54 | 253 | 1.0 | 10.0 | 0.00 | 1.09 | 0.31 | 52 | 1012.9 |
| 20260506203508 | 54 | 271 | 3.0 | 10.0 | 0.00 | 1.09 | 0.31 | 52 | 1012.8 |
| 20260506203022 | 54 | 287 | 2.0 | 7.0 | 0.00 | 1.09 | 0.31 | 52 | 1012.8 |
| 20260506202509 | 55 | 309 | 2.0 | 9.0 | 0.00 | 1.11 | 0.31 | 54 | 1012.7 |
| 20260506201522 | 55 | 238 | 3.0 | 4.0 | 0.00 | 1.11 | 0.31 | 54 | 1012.7 |
| 20260506201008 | 55 | 345 | 2.0 | 8.0 | 0.00 | 1.11 | 0.31 | 56 | 1012.7 |
| 20260506200508 | 54 | 307 | 3.0 | 8.0 | 0.00 | 1.11 | 0.31 | 54 | 1012.7 |
| 20260506200012 | 54 | 265 | 1.0 | 7.0 | 0.00 | 1.11 | 0.31 | 53 | 1012.7 |
| 20260506195506 | 54 | 291 | 2.0 | 7.0 | 0.00 | 1.11 | 0.31 | 54 | 1012.6 |
| 20260506195007 | 54 | 278 | 2.0 | 7.0 | 0.00 | 1.11 | 0.31 | 53 | 1012.7 |
| 20260506194519 | 54 | 274 | 2.0 | 7.0 | 0.00 | 1.11 | 0.31 | 55 | 1012.7 |
| 20260506194007 | 54 | 304 | 2.0 | 6.0 | 0.00 | 1.11 | 0.31 | 56 | 1012.8 |
| 20260506193508 | 54 | 305 | 2.0 | 6.0 | 0.00 | 1.11 | 0.31 | 56 | 1012.8 |
| 20260506193020 | 54 | 281 | 1.0 | 5.0 | 0.00 | 1.11 | 0.31 | 58 | 1012.9 |
| 20260506192514 | 54 | 30 | 2.0 | 6.0 | 0.00 | 1.11 | 0.31 | 55 | 1012.9 |
| 20260506192010 | 54 | 275 | 0.0 | 6.0 | 0.00 | 1.11 | 0.31 | 60 | 1012.9 |
| 20260506191525 | 54 | 24 | 1.0 | 6.0 | 0.00 | 1.11 | 0.31 | 58 | 1012.8 |
| 20260506190025 | 55 | 32 | 1.0 | 10.0 | 0.00 | 1.11 | 0.31 | 55 | 1012.8 |